Location: Rounton
(54.4000°N, 1.3500°W)
Time: 14:19:29
(UTC+00:00)

Transit 2A - Pass Details

Date: 07 December 2021
Orbit: 591 x 967 km, 66.7° (Epoch: 21 January)

Event Time Altitude Azimuth Distance (km) Brightness Sun altitude
Rises 07:17:44 0° 317° (NW) 3,649 - -7.3°
Exits shadow 07:19:32 - 318° (NW) 2,990 8.4 -7.1°
Reaches altitude 10° 07:20:18 10° 318° (NW) 2,713 8.2 -7.0°
Maximum altitude 07:26:45 90° 243° (WSW) 970 6.6 -6.2°
Drops below altitude 10° 07:33:00 10° 140° (SE) 2,636 10.2 -5.4°
Sets 07:35:28 0° 141° (SE) 3,540 11.1 -5.1°
